Udo Maru — JM6522 — position and weather

sailwx.info

Track history (hours):
 
Tides and Currents Weather Stations Pressure Air Temp Water Temp Dewpoint Dewpoint Depression Visibility Wind Speed Wind Dir Waves Ship Positions

Udo Maru

Last reported at 2014-Oct-23 19:13 UTC. Time now 2014-Oct-24 11:26 UTC.
Position N 33°59' E 135°00'.

Length 87 m; draft 4.9 m.

Type: Ship (hazmat cat A). MMSI: 431600499.

Date/timePositionNaut miles runAvg speedWind from/ knotsBaromVisibWave heightAir tempDewpointWater temp
2014-Oct-23 19:13N 33°59' E 135°00'811.5
2014-Oct-23 18:33N 34°07' E 134°59'1312.7
2014-Oct-23 17:30N 34°20' E 134°59'1112.1
2014-Oct-23 16:33N 34°31' E 135°02'120 8.9
2014-Oct-23 03:03N 33°57' E 132°43'113 2.2
2014-Oct-20 23:08N 34°35' E 134°51'814.1
2014-Oct-20 22:33N 34°37' E 135°01'1111.5
2014-Oct-20 21:33N 34°26' E 135°03'1313.1
2014-Oct-20 20:33N 34°13' E 134°59'15 0.3
2014-Oct-18 22:12N 33°58' E 135°00'811.6
2014-Oct-18 21:32N 34°06' E 134°59'1111.2
2014-Oct-18 20:33N 34°17' E 134°59'1111.2
2014-Oct-18 19:33N 34°28' E 135°01'9 9.0
2014-Oct-18 18:33N 34°37' E 135°00'  
2014-Oct-15 16:33N 34°37' E 134°59'9 8.9
2014-Oct-15 15:33N 34°29' E 135°03'1211.5
2014-Oct-15 14:32N 34°18' E 134°60'1111.4
2014-Oct-15 13:33N 34°07' E 135°00'  
Track history (hours):
 
Tides and Currents Weather Stations Pressure Air Temp Water Temp Dewpoint Dewpoint Depression Visibility Wind Speed Wind Dir Waves Ship Positions

Udo Maru

Last reported at 2014-Oct-23 19:13 UTC. Time now 2014-Oct-24 11:26 UTC.
Position N 33°59' E 135°00'.

Length 87 m; draft 4.9 m.

Type: Ship (hazmat cat A). MMSI: 431600499.

Date/timePositionNaut miles runAvg speedWind from/ knotsBaromVisibWave heightAir tempDewpointWater temp
2014-Oct-23 19:13N 33°59' E 135°00'811.5
2014-Oct-23 18:33N 34°07' E 134°59'1312.7
2014-Oct-23 17:30N 34°20' E 134°59'1112.1
2014-Oct-23 16:33N 34°31' E 135°02'120 8.9
2014-Oct-23 03:03N 33°57' E 132°43'113 2.2
2014-Oct-20 23:08N 34°35' E 134°51'814.1
2014-Oct-20 22:33N 34°37' E 135°01'1111.5
2014-Oct-20 21:33N 34°26' E 135°03'1313.1
2014-Oct-20 20:33N 34°13' E 134°59'15 0.3
2014-Oct-18 22:12N 33°58' E 135°00'811.6
2014-Oct-18 21:32N 34°06' E 134°59'1111.2
2014-Oct-18 20:33N 34°17' E 134°59'1111.2
2014-Oct-18 19:33N 34°28' E 135°01'9 9.0
2014-Oct-18 18:33N 34°37' E 135°00'  
2014-Oct-15 16:33N 34°37' E 134°59'9 8.9
2014-Oct-15 15:33N 34°29' E 135°03'1211.5
2014-Oct-15 14:32N 34°18' E 134°60'1111.4
2014-Oct-15 13:33N 34°07' E 135°00'  

Dump ship's entire track history